TimeEST,TemperatureF,Dew PointF,Humidity,Sea Level PressureIn,VisibilityMPH,Wind Direction,Wind SpeedMPH,Gust SpeedMPH,PrecipitationIn,Events,Conditions,WindDirDegrees,DateUTC
12:53 AM,51.1,45.0,80,30.17,10.0,NW,3.5,-,N/A,,Clear,320,2013-03-05 05:53:00
2:53 AM,51.1,44.1,77,30.14,10.0,Calm,Calm,-,N/A,,Partly Cloudy,0,2013-03-05 07:53:00
3:53 AM,48.0,43.0,83,30.13,10.0,Calm,Calm,-,N/A,,Clear,0,2013-03-05 08:53:00
4:53 AM,48.9,44.1,83,30.14,10.0,Calm,Calm,-,N/A,,Clear,0,2013-03-05 09:53:00
5:53 AM,50.0,44.1,80,30.16,10.0,Calm,Calm,-,N/A,,Partly Cloudy,0,2013-03-05 10:53:00
6:53 AM,50.0,45.0,83,30.17,10.0,West,3.5,-,N/A,,Partly Cloudy,270,2013-03-05 11:53:00
7:53 AM,57.0,48.9,74,30.17,10.0,NW,3.5,-,N/A,,Partly Cloudy,320,2013-03-05 12:53:00
8:53 AM,66.0,50.0,56,30.18,10.0,Calm,Calm,-,N/A,,Partly Cloudy,0,2013-03-05 13:53:00
9:53 AM,70.0,53.1,55,30.17,10.0,SSE,6.9,-,N/A,,Partly Cloudy,160,2013-03-05 14:53:00
10:53 AM,72.0,53.1,51,30.16,10.0,SE,10.4,17.3,N/A,,Scattered Clouds,140,2013-03-05 15:53:00
11:53 AM,73.0,53.1,49,30.16,10.0,South,6.9,-,N/A,,Scattered Clouds,190,2013-03-05 16:53:00
12:53 PM,73.0,54.0,51,30.14,10.0,ESE,12.7,-,N/A,,Scattered Clouds,120,2013-03-05 17:53:00
1:53 PM,73.9,53.1,48,30.10,10.0,ESE,15.0,-,N/A,,Scattered Clouds,120,2013-03-05 18:53:00
2:53 PM,73.9,53.1,48,30.10,10.0,SE,13.8,-,N/A,,Scattered Clouds,140,2013-03-05 19:53:00
3:53 PM,73.0,53.1,49,30.09,10.0,SSE,12.7,-,N/A,,Partly Cloudy,150,2013-03-05 20:53:00
4:53 PM,72.0,53.1,51,30.09,10.0,SE,12.7,-,N/A,,Partly Cloudy,140,2013-03-05 21:53:00
5:53 PM,69.1,54.0,58,30.09,10.0,SSE,16.1,-,N/A,,Partly Cloudy,150,2013-03-05 22:53:00
6:53 PM,68.0,55.0,63,30.10,10.0,South,8.1,-,N/A,,Partly Cloudy,170,2013-03-05 23:53:00
7:53 PM,66.9,55.0,66,30.09,10.0,South,8.1,-,N/A,,Partly Cloudy,170,2013-03-06 00:53:00
8:53 PM,66.0,54.0,65,30.10,10.0,South,10.4,-,N/A,,Clear,190,2013-03-06 01:53:00
9:53 PM,64.9,54.0,68,30.10,10.0,SSW,9.2,-,N/A,,Clear,200,2013-03-06 02:53:00
10:53 PM,63.0,54.0,72,30.09,10.0,SW,6.9,-,N/A,,Clear,220,2013-03-06 03:53:00
11:53 PM,61.0,55.0,81,30.09,10.0,SW,6.9,-,N/A,,Clear,230,2013-03-06 04:53:00